OpenBCM V1.08-5-g2f4a (Linux)

Packet Radio Mailbox

IZ3LSV

[San Dona' di P. JN]

 Login: GUEST





  
I0OJJ  > KEPS     11.03.25 06:04l 329 Lines 15573 Bytes #117 (0) @ AMSAT
BID : ORB25070.1
Read: GUEST
Subj: 2Line Orbital Elements 25070.AMSAT
Path: IZ3LSV<ED1ZAC<EA5URD
Sent: 250311/0350Z @:EA5URD.EAMU.ESP.EU #:9856 XFBB7.07 Bid:ORB25070.1

R:250311/0345Z @:EA2RCF.EAVI.ESP.EU #:62476 [Vitoria] $:ORB25070.1
R:250311/0345z @:I0OJJ.ITA.EU [Rome] obcm1.08-6-g5b69
From: I0OJJ @ I0OJJ.ITA.EU (Gustavo)
To:   KEPS @ AMSAT
X-Info: This message was generated automatically


QST de W1STR

AMSAT Orbital Elements for Amateur Satellites in TLE Format
From Orbital Analysis Office
New England Sci-Tech STEM Education Center
Natick, MA March 11, 2025
To all radio amateurs


These element sets describe the orbits of various satellites 
in use by the amateur radio community. For details see:
www.amsat.org/keplerian-elements-formats/

A daily update of element sets is available at:
www.amsat.org/tle/daily-bulletin.txt
or without bulletin text:
www.amsat.org/tle/dailytle.txt


AO-07
1 07530U 74089B   25069.60854110 -.00000014  00000-0  20345-3 0  9993
2 07530 101.9950  72.8994 0011889 296.4187 182.0603 12.53686996302421
UO-11
1 14781U 84021B   25069.48849675  .00002719  00000-0  29571-3 0  9995
2 14781  97.7435  37.7444 0006101 281.0584  78.9947 14.88864603188080
AO-27
1 22825U 93061C   25069.58613723  .00000227  00000-0  10384-3 0  9995
2 22825  98.7487 130.6432 0008761  26.9458 333.2177 14.30744944640702
FO-29
1 24278U 96046B   25069.58907723 -.00000009  00000-0  28595-4 0  9994
2 24278  98.5851 335.4209 0349268 218.1709 139.4225 13.53239637410460
NOAA-15
1 25338U 98030A   25069.86630663  .00000331  00000-0  15404-3 0  9995
2 25338  98.5457  97.1406 0009125 263.6524  96.3618 14.26904378395467
GO-32
1 25397U 98043D   25069.85929470  .00000210  00000-0  11094-3 0  9997
2 25397  98.9615  47.1287 0002347 100.2710 259.8733 14.24268624385598
ISS
1 25544U 98067A   25069.85900370  .00012030  00000-0  21929-3 0  9996
2 25544  51.6353  74.0496 0006400   7.1788 352.9291 15.49878056499912
NO-44
1 26931U 01043C   25069.20192077  .00000434  00000-0  19362-3 0  9994
2 26931  67.0530   4.0861 0005729 266.3475  93.6972 14.31647773224028
SO-50
1 27607U 02058C   25069.48739508  .00002363  00000-0  31669-3 0  9995
2 27607  64.5534 121.6296 0045771 356.3431   3.7333 14.81098581195736
CO-55
1 27844U 03031E   25069.61350922  .00000705  00000-0  32685-3 0  9991
2 27844  98.6794  79.0533 0010888  91.8543 268.3882 14.23861818125728
CO-57
1 27848U 03031J   25069.44958442  .00000617  00000-0  29186-3 0  9991
2 27848  98.6825  78.9653 0010734 107.3036 252.9317 14.23215896125404
RS-22
1 27939U 03042A   25069.87557939  .00002398  00000-0  39097-3 0  9997
2 27939  98.3176 237.1978 0010607 299.2351 170.4815 14.71902641147483
NOAA-18
1 28654U 05018A   25069.80899104  .00000343  00000-0  20534-3 0  9997
2 28654  98.8471 150.2959 0014463  31.4240 328.7793 14.13537157 20926
CO-58
1 28895U 05043F   25069.35509585  .00003828  00000-0  64052-3 0  9997
2 28895  98.2326 212.6752 0014214 233.1718 126.8185 14.70362891 33532
CO-65
1 32785U 08021C   25069.90953113  .00008999  00000-0  67661-3 0  9993
2 32785  97.7771  40.5468 0011626 145.5867 214.6113 15.02745672915523
AAUSAT2
1 32788U 08021F   25069.22213269  .00122209  00000-0  18708-2 0  9990
2 32788  97.6063  62.2419 0003991  92.8964 267.2745 15.53922393919144
CO-66
1 32791U 08021J   25069.49154744  .00018086  00000-0  97014-3 0  9990
2 32791  97.7209  47.7545 0006912 109.1452 251.0528 15.14999728916767
RS-30
1 32953U 08025A   25069.78231943  .00000038  00000-0  20091-3 0  9992
2 32953  82.4989 283.6649 0018686 243.1073 116.8097 12.43159806762254
NOAA-19
1 33591U 09005A   25069.80057704  .00000306  00000-0  18753-3 0  9994
2 33591  99.0082 133.9598 0012830 258.7759 101.1971 14.13304597829282
SRMSAT
1 37841U 11058D   25069.89237013  .00000586  00000-0  17478-3 0  9992
2 37841  19.9733 343.3218 0011860 147.2833 280.2449 14.11379924692507
ZACUBE-1
1 39417U 13066B   25069.42312226  .00010665  00000-0  95817-3 0  9995
2 39417  97.7694  27.0617 0045466 359.6886   0.4298 14.95075617611287
Delfi-N3xt
1 39428U 13066N   25069.75050187  .00011441  00000-0  12200-2 0  9995
2 39428  97.8369 348.5356 0086430 300.3154  58.9532 14.86276539605757
GOMX-1
1 39430U 13066Q   25069.79477857  .00003671  00000-0  57874-3 0  9992
2 39430  97.6973 293.9949 0134987 122.5747 238.8578 14.67013647602094
LO-74
1 39440U 13066AA  25069.84720955  .00007123  00000-0  74190-3 0  9995
2 39440  97.8406  15.1598 0065529 118.2769 242.5082 14.88514222609135
AO-73
1 39444U 13066AE  25069.50944102  .00013824  00000-0  10957-2 0  9999
2 39444  97.7571  31.3202 0040781 337.0515  22.8885 15.00005058609920
DTUSAT-2
1 40030U 14033W   25069.48159991  .00011135  00000-0  76610-3 0  9990
2 40030  98.0456  37.0760 0010419  22.6399 337.5285 15.06043629583184
EO-80
1 40032U 14033Y   25069.50663567  .00011857  00000-0  81352-3 0  9994
2 40032  98.0350  36.8812 0007217 322.7593  37.3132 15.06151574582652
LILACSAT-2
1 40908U 15049K   25069.82356046  .00015587  00000-0  44919-3 0  9992
2 40908  97.5150  88.1221 0011841 120.9998 239.2410 15.35753102524289
IO-86
1 40931U 15052B   25038.81889873  .00001817  00000-0  15548-3 0  9993
2 40931   6.0001 108.1159 0012838 187.7041 172.2889 14.78568669506492
Horyu-4
1 41340U 16012D   25069.21126865  .00029294  00000-0  94202-3 0  9991
2 41340  30.9997  24.0368 0007670 204.1426 155.8859 15.31024468498740
Lapan A3
1 41603U 16040E   25069.81975370  .00005999  00000-0  21645-3 0  9990
2 41603  97.1397  78.0345 0009710 225.7825 134.2619 15.28822802483916
CAS-2T
1 41847U 16066G   25069.31335863  .00003079  00000-0  44401-3 0  9992
2 41847  98.4276 144.5628 0348668  94.5591 269.5507 14.43102668437856
CAS-4B
1 42759U 17034B   25069.63991220  .00049064  00000-0  84343-3 0  9994
2 42759  43.0108 138.8920 0016880  10.5685 349.5527 15.50205482428421
CAS-4A
1 42761U 17034D   25069.66163077  .00051645  00000-0  86769-3 0  9993
2 42761  43.0142 136.6128 0018100  17.1079 343.0388 15.50806556428440
TechnoSat
1 42829U 17042E   25069.46632019  .00006451  00000-0  51359-3 0  9994
2 42829  97.3896 242.5605 0012184 229.2091 130.8078 15.00646726417055
AO-91
1 43017U 17073E   25069.56402191  .00011735  00000-0  62134-3 0  9999
2 43017  97.5440 302.6918 0182037 115.9176 246.0937 15.02326448395537
S-Net D
1 43186U 18014G   25069.78513278  .00008005  00000-0  49234-3 0  9997
2 43186  97.5715 333.6661 0009609 164.3814 195.7713 15.10264050388665
S-Net B
1 43187U 18014H   25069.78943126  .00008321  00000-0  51171-3 0  9991
2 43187  97.5720 333.6376 0010500 160.9027 199.2598 15.10248587388662
S-Net A
1 43188U 18014J   25069.32202852  .00008874  00000-0  54525-3 0  9995
2 43188  97.5728 333.3142 0010301 162.9535 197.2042 15.10260624388594
S-Net C
1 43189U 18014K   25069.79162768  .00008300  00000-0  51029-3 0  9998
2 43189  97.5744 333.7771 0012144 155.9533 204.2266 15.10244414387216
Ten-Koh
1 43677U 18084G   25069.55545855  .00005894  00000-0  48198-3 0  9991
2 43677  98.0941 238.1814 0010129 206.2690 153.8020 14.99722363346597
PO-101
1 43678U 18084H   25069.81368134  .00004629  00000-0  40187-3 0  9999
2 43678  98.0951 242.5407 0008050 221.3879 138.6732 14.97539985346790
QO-100
1 43700U 18090A   25069.81919472  .00000127  00000-0  00000+0 0  9994
2 43700   0.0280 153.4654 0001434 221.6175 114.3447  1.00271192 23271
MinXSS-2
1 43758U 18099A   25069.71472275  .00020506  00000-0  91371-3 0  9998
2 43758  97.5143 135.6608 0014058 116.6951 243.5725 15.21373559343137
AO-95
1 43770U 18099N   25069.10753643  .00017363  00000-0  94285-3 0  9990
2 43770  97.5054 128.3001 0012082 164.9553 195.2041 15.14525867342694
RANGE-A
1 43773U 18099R   25069.59276195  .00007275  00000-0  48027-3 0  9992
2 43773  97.4628 120.6476 0013032 139.0199 221.2011 15.07653197342506
MOVE-II
1 43780U 18099Y   25069.18240281  .00084927  00000-0  17173-2 0  9998
2 43780  97.4781 140.0687 0004120 138.0507 222.1058 15.46147805343558
SNUSat 2
1 43782U 18099AA  25069.71112060  .00011786  00000-0  68139-3 0  9994
2 43782  97.4736 126.3588 0013920 108.4540 251.8205 15.12348963342758
SnugLite
1 43784U 18099AC  25069.55297193  .00013626  00000-0  73553-3 0  9990
2 43784  97.4553 125.6067 0005118 112.3665 247.8109 15.14842646342840
ITASat 1
1 43786U 18099AE  25069.55821205  .00009778  00000-0  58729-3 0  9990
2 43786  97.4710 125.9667 0015814 156.4691 203.7265 15.10996421342704
EAGLET 1
1 43790U 18099AJ  25069.14522011  .00007761  00000-0  51090-3 0  9997
2 43790  97.4906 125.7863 0013694 138.6248 221.6020 15.07732189342282
ESEO
1 43792U 18099AL  25069.55534044  .00004180  00000-0  32288-3 0  9993
2 43792  97.4594 120.6184 0011825 110.3114 249.9383 15.02004556342156
CSIM
1 43793U 18099AM  25069.74760152  .00094169  00000-0  18684-2 0  9995
2 43793  97.4966 142.6980 0005565 105.0965 255.0900 15.46657658343482
JO-97
1 43803U 18099AX  25069.70554942  .00016644  00000-0  83054-3 0  9997
2 43803  97.4799 129.7244 0009230 104.9007 255.3249 15.17547214342971
Suomi 100
1 43804U 18099AY  25069.38892911  .00015980  00000-0  84138-3 0  9999
2 43804  97.4865 128.9355 0014419 106.1763 254.1058 15.15611702342874
ISAT
1 43879U 18111D   25069.31553040  .00026538  00000-0  10763-2 0  9999
2 43879  97.6019 341.9913 0011105 145.4353 214.7608 15.24547142339769
UWE-4
1 43880U 18111E   25069.54519249  .00019845  00000-0  87754-3 0  9997
2 43880  97.5959 341.2705 0013768 158.3943 201.7876 15.21646315339762
Sparrow
1 43881U 18111F   25069.75701713  .00025460  00000-0  10038-2 0  9990
2 43881  97.6148 344.9946 0007330 175.8729 184.2571 15.25536782337917
Prox-1
1 44339U 19036A   25068.97693371  .00020230  00000-0  27706-2 0  9999
2 44339  23.9984 302.3283 0007195 103.0514 257.0786 14.76939062304444
SONATE
1 44400U 19038Q   25069.56661520  .00078308  00000-0  85611-3 0  9996
2 44400  97.7070  86.4928 0007977 202.5651 157.5257 15.63032756315236
